OBJECT_NAME,OBJECT_ID,EPOCH,MEAN_MOTION,ECCENTRICITY,INCLINATION,RA_OF_ASC_NODE,ARG_OF_PERICENTER,MEAN_ANOMALY,EPHEMERIS_TYPE,CLASSIFICATION_TYPE,NORAD_CAT_ID,ELEMENT_SET_NO,REV_AT_EPOCH,BSTAR,MEAN_MOTION_DOT,MEAN_MOTION_DDOT ORBCOMM FM06,1997-084G,2026-09-11T13:36:49.000320,14.47740094,.00016089,45.0150,356.8124,233.7030,315.9947,0,U,25118,999,50690,.25421763E-3,.802E-5,0 ORBCOMM FM04,1998-007C,2026-09-12T04:54:42.946272,14.35859096,.00407022,107.9604,348.5157,176.8059,183.3348,0,U,25159,999,48908,.22841573E-3,.536E-5,0 ORBCOMM FM19,1998-046C,2026-09-12T02:20:54.005856,14.39631692,.00047656,44.9928,190.3950,4.9853,11.0011,0,U,25415,999,46930,.25981524E-3,.677E-5,0 ORBCOMM FM20,1998-046D,2026-09-12T03:00:55.439424,14.38167554,.00024179,44.9929,199.1554,335.2019,24.8712,0,U,25416,999,46930,.19058632E-3,.441E-5,0 ORBCOMM FM27,1998-053G,2026-09-12T02:17:16.380672,14.39272072,.00029291,45.0050,282.5224,275.3594,84.6920,0,U,25481,999,46275,.20949581E-3,.513E-5,0 ORBCOMM FM32,1999-065C,2026-09-12T01:01:38.333856,14.37235863,.00059299,45.0147,122.0828,122.6648,237.4773,0,U,25982,999,39958,.1947629E-3,.443E-5,0 ORBCOMM FM109,2014-040A,2026-09-12T03:27:03.481056,14.58915192,.00020649,47.0041,40.3384,255.4539,104.6118,0,U,40086,999,64704,.86825743E-4,.24E-5,0 ORBCOMM FM110,2015-081D,2026-09-11T12:42:51.662304,14.58985533,.00020286,47.0026,313.1540,132.3691,227.7367,0,U,41182,999,57023,.10586561E-3,.33E-5,0 ORBCOMM FM118,2015-081E,2026-09-12T04:20:55.400064,14.58969302,.00017518,47.0047,310.4304,69.2398,290.8675,0,U,41183,999,57043,.10602551E-3,.331E-5,0 ORBCOMM FM112,2015-081F,2026-09-12T06:04:15.857184,14.58954061,.00035786,46.9980,218.5084,259.5474,100.5009,0,U,41184,999,57166,.10931448E-3,.346E-5,0 ORBCOMM FM113,2015-081G,2026-09-12T05:34:48.432864,14.58929023,.00023776,46.9995,219.0262,263.6836,96.3779,0,U,41185,999,57164,.83463339E-4,.224E-5,0 ORBCOMM FM108,2015-081J,2026-09-11T15:28:59.379744,14.58975945,.00025084,47.0043,133.3904,244.9293,115.1333,0,U,41187,999,57270,.11896326E-3,.392E-5,0 ORBCOMM FM117,2015-081K,2026-09-12T00:32:11.140224,14.58958569,.00029946,47.0004,130.2211,251.6594,108.3967,0,U,41188,999,57280,.11867547E-3,.391E-5,0 ORBCOMM FM116,2015-081L,2026-09-12T06:38:26.507616,14.58955952,.00004411,47.0012,218.8159,80.2512,279.8424,0,U,41189,999,57165,.85169304E-4,.232E-5,0